Time,TemperatureF,DewpointF,PressureIn,WindDirection,WindDirectionDegrees,WindSpeedMPH,WindSpeedGustMPH,Humidity,HourlyPrecipIn,Conditions,Clouds,dailyrainin,SoftwareType,DateUTC
2013-03-21 00:00:00,11.9,2.3,30.01,NNW,338,2.5,2.5,65,0.00,,,0.00,WUHU216HW,2013-03-21 05:00:00,
2013-03-21 00:05:00,11.9,2.3,30.01,NNW,338,2.5,2.5,65,0.00,,,0.00,WUHU216HW,2013-03-21 05:05:00,
2013-03-21 00:30:00,11.7,2.1,30.01,North,0,4.3,4.3,65,0.00,,,0.00,WUHU216HW,2013-03-21 05:30:00,
2013-03-21 00:35:00,11.7,2.1,30.01,North,0,4.3,4.3,65,0.00,,,0.00,WUHU216HW,2013-03-21 05:35:00,
2013-03-21 01:00:00,11.2,1.9,30.01,North,0,2.7,2.7,66,0.00,,,0.00,WUHU216HW,2013-03-21 06:00:00,
2013-03-21 01:05:00,11.2,1.9,30.01,North,0,2.7,2.7,66,0.00,,,0.00,WUHU216HW,2013-03-21 06:05:00,
2013-03-21 01:30:00,10.3,1.4,30.00,NNW,338,2.5,2.5,67,0.00,,,0.00,WUHU216HW,2013-03-21 06:30:00,
2013-03-21 01:35:00,10.3,1.4,30.00,NNW,338,2.5,2.5,67,0.00,,,0.00,WUHU216HW,2013-03-21 06:35:00,
2013-03-21 02:30:00,9.4,1.5,30.00,North,0,2.0,2.0,70,0.00,,,0.00,WUHU216HW,2013-03-21 07:30:00,
2013-03-21 02:35:00,9.4,1.5,30.00,North,0,2.0,2.0,70,0.00,,,0.00,WUHU216HW,2013-03-21 07:35:00,
2013-03-21 04:00:00,9.5,2.0,29.98,NNW,338,1.8,1.8,71,0.00,,,0.00,WUHU216HW,2013-03-21 09:00:00,
2013-03-21 04:05:00,9.5,2.0,29.98,NNW,338,1.8,1.8,71,0.00,,,0.00,WUHU216HW,2013-03-21 09:05:00,
2013-03-21 04:30:00,8.8,1.1,29.98,NNW,338,1.1,1.1,70,0.00,,,0.00,WUHU216HW,2013-03-21 09:30:00,
2013-03-21 04:35:00,8.8,1.1,29.98,NNW,338,1.1,1.1,70,0.00,,,0.00,WUHU216HW,2013-03-21 09:35:00,
2013-03-21 05:00:00,8.6,1.4,29.99,North,0,4.0,4.0,72,0.00,,,0.00,WUHU216HW,2013-03-21 10:00:00,
2013-03-21 05:05:00,8.6,1.4,29.99,North,0,4.0,4.0,72,0.00,,,0.00,WUHU216HW,2013-03-21 10:05:00,
2013-03-21 05:30:00,8.8,1.6,29.99,NNW,338,0.9,0.9,72,0.00,,,0.00,WUHU216HW,2013-03-21 10:30:00,
2013-03-21 05:35:00,8.8,1.6,29.99,NNW,338,0.9,0.9,72,0.00,,,0.00,WUHU216HW,2013-03-21 10:35:00,
2013-03-21 06:00:00,9.0,1.8,29.98,NNW,338,1.8,1.8,72,0.00,,,0.00,WUHU216HW,2013-03-21 11:00:00,
2013-03-21 06:05:00,9.0,1.8,29.98,NNW,338,1.8,1.8,72,0.00,,,0.00,WUHU216HW,2013-03-21 11:05:00,
2013-03-21 06:30:00,9.0,1.8,29.99,NNW,338,1.1,1.1,72,0.00,,,0.00,WUHU216HW,2013-03-21 11:30:00,
2013-03-21 06:35:00,9.0,1.8,29.99,NNW,338,1.1,1.1,72,0.00,,,0.00,WUHU216HW,2013-03-21 11:35:00,
2013-03-21 07:00:00,9.0,1.8,29.99,NNE,23,0.4,0.4,72,0.00,,,0.00,WUHU216HW,2013-03-21 12:00:00,
2013-03-21 07:05:00,9.0,1.8,29.99,NNE,23,0.4,0.4,72,0.00,,,0.00,WUHU216HW,2013-03-21 12:05:00,
2013-03-21 07:30:00,9.2,2.3,29.99,North,0,0.7,0.7,73,0.00,,,0.00,WUHU216HW,2013-03-21 12:30:00,
2013-03-21 07:35:00,9.2,2.3,29.99,North,0,0.7,0.7,73,0.00,,,0.00,WUHU216HW,2013-03-21 12:35:00,
2013-03-21 08:00:00,10.6,3.2,30.00,NW,315,1.3,1.3,72,0.00,,,0.00,WUHU216HW,2013-03-21 13:00:00,
2013-03-21 08:05:00,10.6,3.2,30.00,NW,315,1.3,1.3,72,0.00,,,0.00,WUHU216HW,2013-03-21 13:05:00,
2013-03-21 08:30:00,11.3,4.0,30.00,North,0,4.0,4.0,72,0.00,,,0.00,WUHU216HW,2013-03-21 13:30:00,
2013-03-21 08:35:00,11.3,4.0,30.00,North,0,4.0,4.0,72,0.00,,,0.00,WUHU216HW,2013-03-21 13:35:00,
2013-03-21 09:00:00,13.3,5.4,30.00,North,0,4.9,4.9,70,0.00,,,0.00,WUHU216HW,2013-03-21 14:00:00,
2013-03-21 09:05:00,13.3,5.4,30.00,North,0,4.9,4.9,70,0.00,,,0.00,WUHU216HW,2013-03-21 14:05:00,
2013-03-21 10:30:00,20.0,9.6,30.01,North,0,6.0,6.0,64,0.00,,,0.00,WUHU216HW,2013-03-21 15:30:00,
2013-03-21 10:35:00,20.0,9.6,30.01,North,0,6.0,6.0,64,0.00,,,0.00,WUHU216HW,2013-03-21 15:35:00,
2013-03-21 11:30:00,24.1,11.8,30.01,North,0,4.7,4.7,59,0.00,,,0.00,WUHU216HW,2013-03-21 16:30:00,
2013-03-21 11:35:00,24.1,11.8,30.01,North,0,4.7,4.7,59,0.00,,,0.00,WUHU216HW,2013-03-21 16:35:00,
2013-03-21 12:00:00,25.9,12.7,30.01,North,0,3.6,3.6,57,0.00,,,0.00,WUHU216HW,2013-03-21 17:00:00,
2013-03-21 12:05:00,25.9,12.7,30.01,North,0,3.6,3.6,57,0.00,,,0.00,WUHU216HW,2013-03-21 17:05:00,
2013-03-21 13:00:00,27.7,13.1,30.01,North,0,6.5,6.5,54,0.00,,,0.00,WUHU216HW,2013-03-21 18:00:00,
2013-03-21 13:05:00,27.7,13.1,30.01,North,0,6.5,6.5,54,0.00,,,0.00,WUHU216HW,2013-03-21 18:05:00,
2013-03-21 13:30:00,29.2,13.7,30.00,North,0,4.5,4.5,52,0.00,,,0.00,WUHU216HW,2013-03-21 18:30:00,
2013-03-21 13:35:00,29.2,13.7,30.00,North,0,4.5,4.5,52,0.00,,,0.00,WUHU216HW,2013-03-21 18:35:00,
2013-03-21 14:00:00,30.6,14.6,29.99,North,0,5.4,5.4,51,0.00,,,0.00,WUHU216HW,2013-03-21 19:00:00,
2013-03-21 14:05:00,30.6,14.6,29.99,North,0,5.4,5.4,51,0.00,,,0.00,WUHU216HW,2013-03-21 19:05:00,
2013-03-21 14:30:00,33.5,14.2,29.99,WNW,293,4.3,4.3,45,0.00,,,0.00,WUHU216HW,2013-03-21 19:30:00,
2013-03-21 14:35:00,33.5,14.2,29.99,WNW,293,4.3,4.3,45,0.00,,,0.00,WUHU216HW,2013-03-21 19:35:00,
2013-03-21 15:00:00,32.6,13.4,29.98,NW,315,3.4,3.4,45,0.00,,,0.00,WUHU216HW,2013-03-21 20:00:00,
2013-03-21 15:05:00,32.8,13.6,29.98,NNW,338,6.7,6.7,45,0.00,,,0.00,WUHU216HW,2013-03-21 20:05:00,
2013-03-21 15:10:00,32.8,13.6,29.98,NNW,338,6.7,6.7,45,0.00,,,0.00,WUHU216HW,2013-03-21 20:10:00,
2013-03-21 15:31:00,33.8,14.6,29.98,North,0,3.8,3.8,45,0.00,,,0.00,WUHU216HW,2013-03-21 20:31:00,
2013-03-21 15:36:00,33.8,14.6,29.98,North,0,3.8,3.8,45,0.00,,,0.00,WUHU216HW,2013-03-21 20:36:00,
2013-03-21 16:00:00,34.2,14.0,29.98,NNW,338,3.4,3.4,43,0.00,,,0.00,WUHU216HW,2013-03-21 21:00:00,
2013-03-21 16:05:00,34.2,14.0,29.98,NNW,338,3.4,3.4,43,0.00,,,0.00,WUHU216HW,2013-03-21 21:05:00,
2013-03-21 16:30:00,33.1,13.4,29.97,NNE,23,6.0,6.0,44,0.00,,,0.00,WUHU216HW,2013-03-21 21:30:00,
2013-03-21 16:35:00,33.1,13.4,29.97,NNE,23,6.0,6.0,44,0.00,,,0.00,WUHU216HW,2013-03-21 21:35:00,
2013-03-21 17:00:00,33.8,13.1,29.96,NNW,338,3.1,3.1,42,0.00,,,0.00,WUHU216HW,2013-03-21 22:00:00,
2013-03-21 17:05:00,33.8,13.1,29.96,NNW,338,3.1,3.1,42,0.00,,,0.00,WUHU216HW,2013-03-21 22:05:00,
2013-03-21 17:30:00,29.3,11.5,29.96,North,0,4.0,4.0,47,0.00,,,0.00,WUHU216HW,2013-03-21 22:30:00,
2013-03-21 17:35:00,29.3,11.5,29.96,North,0,4.0,4.0,47,0.00,,,0.00,WUHU216HW,2013-03-21 22:35:00,
2013-03-21 18:00:00,31.3,13.3,29.95,NNW,338,2.0,2.0,47,0.00,,,0.00,WUHU216HW,2013-03-21 23:00:00,
2013-03-21 18:05:00,31.3,13.3,29.95,NNW,338,2.0,2.0,47,0.00,,,0.00,WUHU216HW,2013-03-21 23:05:00,
2013-03-21 18:30:00,29.5,12.7,29.96,NNW,338,2.5,2.5,49,0.00,,,0.00,WUHU216HW,2013-03-21 23:30:00,
2013-03-21 18:35:00,29.5,12.7,29.96,NNW,338,2.5,2.5,49,0.00,,,0.00,WUHU216HW,2013-03-21 23:35:00,
2013-03-21 19:00:00,25.0,11.1,29.96,NNW,338,2.2,2.2,55,0.00,,,0.00,WUHU216HW,2013-03-22 00:00:00,
2013-03-21 19:05:00,25.0,11.1,29.96,NNW,338,2.2,2.2,55,0.00,,,0.00,WUHU216HW,2013-03-22 00:05:00,
2013-03-21 19:30:00,22.7,10.1,29.96,North,0,0.9,0.9,58,0.00,,,0.00,WUHU216HW,2013-03-22 00:30:00,
2013-03-21 19:35:00,22.7,10.1,29.96,North,0,0.9,0.9,58,0.00,,,0.00,WUHU216HW,2013-03-22 00:35:00,
2013-03-21 20:00:00,21.1,9.7,29.97,North,0,0.0,0.0,61,0.00,,,0.00,WUHU216HW,2013-03-22 01:00:00,
2013-03-21 20:05:00,21.1,9.7,29.97,North,0,0.0,0.0,61,0.00,,,0.00,WUHU216HW,2013-03-22 01:05:00,
2013-03-21 20:30:00,19.6,9.6,29.97,North,0,0.4,0.4,65,0.00,,,0.00,WUHU216HW,2013-03-22 01:30:00,
2013-03-21 20:35:00,19.6,9.6,29.97,North,0,0.4,0.4,65,0.00,,,0.00,WUHU216HW,2013-03-22 01:35:00,
2013-03-21 21:00:00,18.9,9.0,29.98,North,0,0.0,0.0,65,0.00,,,0.00,WUHU216HW,2013-03-22 02:00:00,
2013-03-21 21:05:00,18.9,9.0,29.98,North,0,0.0,0.0,65,0.00,,,0.00,WUHU216HW,2013-03-22 02:05:00,
2013-03-21 21:30:00,17.3,7.8,29.98,North,0,0.9,0.9,66,0.00,,,0.00,WUHU216HW,2013-03-22 02:30:00,
2013-03-21 21:35:00,17.3,7.8,29.98,North,0,0.9,0.9,66,0.00,,,0.00,WUHU216HW,2013-03-22 02:35:00,
2013-03-21 22:00:00,15.7,7.9,29.99,North,0,0.0,0.0,71,0.00,,,0.00,WUHU216HW,2013-03-22 03:00:00,
2013-03-21 22:05:00,15.7,7.9,29.99,North,0,0.0,0.0,71,0.00,,,0.00,WUHU216HW,2013-03-22 03:05:00,
2013-03-21 22:30:00,13.9,5.9,29.99,North,0,0.4,0.4,70,0.00,,,0.00,WUHU216HW,2013-03-22 03:30:00,
2013-03-21 22:35:00,13.9,5.9,29.99,North,0,0.4,0.4,70,0.00,,,0.00,WUHU216HW,2013-03-22 03:35:00,
2013-03-21 23:00:00,13.3,6.6,29.99,North,0,0.0,0.0,74,0.00,,,0.00,WUHU216HW,2013-03-22 04:00:00,
2013-03-21 23:05:00,13.3,6.6,29.99,North,0,0.0,0.0,74,0.00,,,0.00,WUHU216HW,2013-03-22 04:05:00,
2013-03-21 23:30:00,12.4,5.4,29.99,North,0,0.0,0.0,73,0.00,,,0.00,WUHU216HW,2013-03-22 04:30:00,
2013-03-21 23:35:00,12.4,5.4,29.99,North,0,0.0,0.0,73,0.00,,,0.00,WUHU216HW,2013-03-22 04:35:00,